Hourly Data Report for September 08, 2017

All times are specified in Local Standard Time (LST). Add 1 hour to adjust for Daylight Saving Time where and when it is observed.

BUCTOUCHE CDA CS
NEW BRUNSWICK

46°25'49.006" N
64°46'05.009" W
35.90 m
8100593
71666
ABT

Download Data

Hourly Data (September 2017)
Hourly Data Report for September 8, 2017
Temp Definition
°C
Dew Point Temp Definition
°C
Rel Hum Definition
%
Wind Dir Definition
10's deg

Wind Spd Definition
km/h
Visibility Definition
km
Stn Press Definition
kPa
Hmdx Definition


Wind Chill Definition


Weather Definition


TIME
00:00 14.1 12.7 91 22 11   100.43     LegendNANA
01:00 14.9 13.3 90 21 12   100.43     LegendNANA
02:00 15.4 13.5 88 21 14   100.46     LegendNANA
03:00 15.3 13.3 88 22 15   100.46     LegendNANA
04:00 14.7 12.9 89 22 13   100.49     LegendNANA
05:00 14.0 12.6 91 22 9   100.52     LegendNANA
06:00 13.7 12.5 92 22 10   100.58     LegendNANA
07:00 14.6 13.0 90 21 11   100.70     LegendNANA
08:00 16.0 13.3 84 23 16   100.79     LegendNANA
09:00 17.4 13.4 77 22 16   100.84     LegendNANA
10:00 17.4 12.4 72 24 18   100.89     LegendNANA
11:00 18.7 12.2 66 22 16   100.91     LegendNANA
12:00 20.6 11.6 57 23 19   100.90     LegendNANA
13:00 21.7 9.9 47 23 19   100.89     LegendNANA
14:00 21.4 9.5 46 23 20   100.93     LegendNANA
15:00 22.9 10.1 44 25 12   100.96     LegendNANA
16:00 22.6 9.4 43 24 13   101.01     LegendNANA
17:00 21.9 9.2 44 25 10   101.04     LegendNANA
18:00 20.1 10.9 55 21 12   101.08     LegendNANA
19:00 16.5 10.8 69 21 7   101.15     LegendNANA
20:00 15.7 11.0 74 23 8   101.25     LegendNANA
21:00 14.8 10.8 77 21 7   101.30     LegendNANA
22:00 14.3 11.4 83 27 9   101.34     LegendNANA
23:00 13.4 11.5 88 19 4   101.36     LegendNANA

Notes on Data Quality.

Legend

  • E = Estimated
  • M = Missing
  • NA = Not Available
  • ‡ = Partner data that is not subject to review by the National Climate Archives
Date modified: